{"data":{"norad_id":67000,"intl_designator":"2025-292H","name":"2025-292H","alt_names":[],"object_type":"PAYLOAD","status":"ACTIVE","operator":null,"country":"PRC","launch_date":"2025-12-10","launch_site_code":"JSC","launch_vehicle":null,"mission":null,"orbit_class":"UNKNOWN","rcs_meters":null,"size_class":null,"mass_kg":null,"dimensions":null,"purposes":[],"wikipedia_slug":null,"has_3d_model":false,"image_url":null,"decayed_at":null,"tle_current":{"epoch":"2026-09-20T22:39:29.955744Z","epoch_age_seconds":73649,"freshness":"FRESH","line1":"1 67000U 25292H   26263.94409671  .00003495  00000+0  22766-3 0  9998","line2":"2 67000  97.6312 339.4371 0015225  43.1180 317.1238 15.08504467 42769","mean_motion":15.08504467,"eccentricity":0.0015225,"inclination_deg":97.6312,"raan_deg":339.4371,"arg_perigee_deg":43.118,"mean_anomaly_deg":317.1238,"bstar":0.00022766,"rev_number":4276,"period_min":95.458782622219,"perigee_km":530.23513456537,"apogee_km":551.30320385061,"semimajor_km":6918.906169208,"source":"CELESTRAK","updated_at":"2026-09-21T09:00:16.366814Z"}}}